Location: Unspecified
(0.0000°N, 0.0000°E)
Time: 09:47:51
(UTC+00:00)

STARLINK-1024 - Pass Details

Date: 11 December 2019
Orbit: 549 x 550 km, 53.0° (Epoch: 12 August)

Event Time Altitude Azimuth Distance (km) Brightness Sun altitude
Rises 19:48:43 0° 251° (WSW) 2,716 8.5 -26.4°
Reaches altitude 10° 19:52:26 10° 285° (WNW) 1,817 6.8 -27.2°
Maximum altitude 19:53:49 11° 305° (NW) 1,724 6.4 -27.5°
Enters shadow 19:54:43 11° 318° (NW) 1,762 6.3 -27.7°
